Year,Month,Day,Hour,Minute,Value (Times are PST for temperature in C)
2009,01,28,00,00,1.10
2009,01,28,00,01,1.10
2009,01,28,00,02,1.20
2009,01,28,00,03,1.20
2009,01,28,00,04,1.20
2009,01,28,00,05,1.20
2009,01,28,00,06,1.20
2009,01,28,00,07,1.20
2009,01,28,00,08,1.20
2009,01,28,00,09,1.10
2009,01,28,00,10,1.10
2009,01,28,00,11,1.10
2009,01,28,00,12,1.10
2009,01,28,01,02,0.80
2009,01,28,01,03,0.80
2009,01,28,01,04,0.80
2009,01,28,01,05,0.80
2009,01,28,01,06,0.80
2009,01,28,01,07,0.80
2009,01,28,01,08,0.80
2009,01,28,01,09,0.80
2009,01,28,01,10,0.80
2009,01,28,01,11,0.80
2009,01,28,01,12,0.70
2009,01,28,01,13,0.70
2009,01,28,01,14,0.70
2009,01,28,01,15,0.70
2009,01,28,01,16,0.70
2009,01,28,01,17,0.70
2009,01,28,01,18,0.70
2009,01,28,01,19,0.70
2009,01,28,01,20,0.60
2009,01,28,01,21,0.60
2009,01,28,01,22,0.60
2009,01,28,01,23,0.60
2009,01,28,01,24,0.60
2009,01,28,01,25,0.60
2009,01,28,01,26,0.60
2009,01,28,01,27,0.50
2009,01,28,01,28,0.50
2009,01,28,01,29,0.50
2009,01,28,01,30,0.50
2009,01,28,01,31,0.50
2009,01,28,01,32,0.50
2009,01,28,01,33,0.40
2009,01,28,01,34,0.40
2009,01,28,01,35,0.40
2009,01,28,01,36,0.40
2009,01,28,01,37,0.40
2009,01,28,01,38,0.40
2009,01,28,01,39,0.40
2009,01,28,01,40,0.40
2009,01,28,01,41,0.30
2009,01,28,01,42,0.30
2009,01,28,01,43,0.30
2009,01,28,01,44,0.30
2009,01,28,01,45,0.30
2009,01,28,01,46,0.30
2009,01,28,01,47,0.20
2009,01,28,01,48,0.20
2009,01,28,01,49,0.20
2009,01,28,01,50,0.20
2009,01,28,01,51,0.20
2009,01,28,01,52,0.20
2009,01,28,01,53,0.10
2009,01,28,01,54,0.10
2009,01,28,01,55,0.10
2009,01,28,01,56,0.10
2009,01,28,01,57,0.10
2009,01,28,01,58,0.10
2009,01,28,01,59,0.10
2009,01,28,02,00,0.10
2009,01,28,02,01,0.10
2009,01,28,02,02,0.10
2009,01,28,02,03,0.10
2009,01,28,02,04,0.10
2009,01,28,02,05,0.10
2009,01,28,02,06,-0.10
2009,01,28,02,07,-0.10
2009,01,28,02,08,-0.10
2009,01,28,02,09,-0.10
2009,01,28,02,10,-0.10
2009,01,28,02,11,-0.10
2009,01,28,02,12,-0.10
2009,01,28,02,13,-0.10
2009,01,28,02,14,-0.10
2009,01,28,02,15,-0.10
2009,01,28,02,16,-0.10
2009,01,28,02,17,-0.10
2009,01,28,02,18,-0.20
2009,01,28,02,19,-0.20
2009,01,28,02,20,-0.20
2009,01,28,02,21,-0.20
2009,01,28,02,22,-0.20
2009,01,28,02,23,-0.20
2009,01,28,02,24,-0.30
2009,01,28,02,25,-0.30
2009,01,28,02,26,-0.30
2009,01,28,02,27,-0.30
2009,01,28,02,28,-0.30
2009,01,28,02,29,-0.40
2009,01,28,02,30,-0.40
2009,01,28,02,31,-0.40
2009,01,28,02,32,-0.40
2009,01,28,02,33,-0.40
2009,01,28,02,34,-0.40
2009,01,28,02,35,-0.40
2009,01,28,02,36,-0.40
2009,01,28,02,37,-0.40
2009,01,28,02,38,-0.50
2009,01,28,02,39,-0.60
2009,01,28,02,40,-0.60
2009,01,28,02,41,-0.60
2009,01,28,02,42,-0.60
2009,01,28,02,43,-0.60
2009,01,28,02,44,-0.60
2009,01,28,02,45,-0.60
2009,01,28,02,46,-0.60
2009,01,28,02,47,-0.60
2009,01,28,02,48,-0.70
2009,01,28,02,49,-0.70
2009,01,28,02,50,-0.70
2009,01,28,02,51,-0.70
2009,01,28,02,52,-0.70
2009,01,28,02,53,-0.70
2009,01,28,02,54,-0.70
2009,01,28,02,55,-0.70
2009,01,28,02,56,-0.70
2009,01,28,02,57,-0.70
2009,01,28,02,58,-0.70
2009,01,28,02,59,-0.80
2009,01,28,03,00,-0.80
2009,01,28,03,01,-0.80
2009,01,28,03,02,-0.80
2009,01,28,03,03,-0.80
2009,01,28,03,04,-0.80
2009,01,28,03,05,-0.70
2009,01,28,03,06,-0.70
2009,01,28,03,07,-0.70
2009,01,28,03,08,-0.70
2009,01,28,03,09,-0.70
2009,01,28,03,10,-0.80
2009,01,28,03,11,-0.80
2009,01,28,03,12,-0.80
2009,01,28,03,13,-0.80
2009,01,28,03,14,-0.80
2009,01,28,03,15,-0.80
2009,01,28,03,16,-0.80
2009,01,28,03,17,-0.80
2009,01,28,03,18,-0.90
2009,01,28,03,19,-0.90
2009,01,28,03,20,-0.90
2009,01,28,03,21,-0.90
2009,01,28,03,22,-0.90
2009,01,28,03,23,-0.90
2009,01,28,03,24,-0.90
2009,01,28,03,25,-0.90
2009,01,28,03,26,-0.90
2009,01,28,03,27,-0.90
2009,01,28,03,28,-0.90
2009,01,28,03,29,-0.90
2009,01,28,03,30,-1.00
2009,01,28,03,31,-1.10
2009,01,28,03,32,-1.10
2009,01,28,03,33,-1.10
2009,01,28,03,34,-1.10
2009,01,28,03,35,-1.00
2009,01,28,03,36,-0.90
2009,01,28,03,37,-0.90
2009,01,28,03,38,-0.90
2009,01,28,03,39,-0.90
2009,01,28,03,40,-0.90
2009,01,28,03,41,-1.00
2009,01,28,03,42,-1.10
2009,01,28,03,43,-1.10
2009,01,28,03,44,-1.10
2009,01,28,03,45,-1.10
2009,01,28,03,46,-1.10
2009,01,28,03,47,-1.10
2009,01,28,03,48,-1.10
2009,01,28,03,49,-1.10
2009,01,28,03,50,-1.10
2009,01,28,03,51,-1.10
2009,01,28,03,52,-1.10
2009,01,28,03,53,-1.10
2009,01,28,03,54,-1.10
2009,01,28,03,55,-1.10
2009,01,28,03,56,-1.10
2009,01,28,03,57,-1.10
2009,01,28,03,58,-1.10
2009,01,28,03,59,-1.10
2009,01,28,04,00,-1.10
2009,01,28,04,01,-1.10
2009,01,28,04,02,-1.10
2009,01,28,04,03,-1.10
2009,01,28,04,04,-1.10
2009,01,28,04,05,-1.10
2009,01,28,04,06,-1.10
2009,01,28,04,07,-1.10
2009,01,28,04,08,-1.10
2009,01,28,04,09,-1.10
2009,01,28,04,10,-1.10
2009,01,28,04,11,-1.10
2009,01,28,04,12,-1.00
2009,01,28,04,13,-0.90
2009,01,28,04,14,-0.90
2009,01,28,04,15,-0.90
2009,01,28,04,16,-0.90
2009,01,28,04,17,-0.90
2009,01,28,04,18,-0.90
2009,01,28,04,19,-0.90
2009,01,28,04,20,-0.90
2009,01,28,04,21,-0.90
2009,01,28,04,22,-0.90
2009,01,28,04,23,-0.90
2009,01,28,04,24,-1.00
2009,01,28,04,25,-1.10
2009,01,28,04,26,-1.10
2009,01,28,04,27,-1.10
2009,01,28,04,28,-1.10
2009,01,28,04,29,-1.10
2009,01,28,04,30,-1.10
2009,01,28,04,31,-1.10
2009,01,28,04,32,-1.10
2009,01,28,04,33,-1.10
2009,01,28,04,34,-1.10
2009,01,28,04,35,-1.10
2009,01,28,04,36,-1.10
2009,01,28,04,37,-1.10
2009,01,28,04,38,-1.10
2009,01,28,04,39,-1.10
2009,01,28,04,40,-1.10
2009,01,28,04,41,-1.10
2009,01,28,04,42,-1.10
2009,01,28,04,43,-1.10
2009,01,28,04,44,-1.20
2009,01,28,04,45,-1.20
2009,01,28,04,46,-1.20
2009,01,28,04,47,-1.20
2009,01,28,04,48,-1.20
2009,01,28,04,49,-1.30
2009,01,28,04,50,-1.30
2009,01,28,04,51,-1.30
2009,01,28,04,52,-1.30
2009,01,28,04,53,-1.30
2009,01,28,04,54,-1.40
2009,01,28,04,55,-1.40
2009,01,28,04,56,-1.40
2009,01,28,04,57,-1.40
2009,01,28,04,58,-1.30
2009,01,28,04,59,-1.30
2009,01,28,05,00,-1.20
2009,01,28,05,01,-1.10
2009,01,28,05,02,-1.10
2009,01,28,05,03,-1.10
2009,01,28,05,04,-1.10
2009,01,28,05,05,-1.10
2009,01,28,05,06,-1.10
2009,01,28,05,07,-1.10
2009,01,28,05,08,-1.10
2009,01,28,05,09,-1.10
2009,01,28,05,10,-1.10
2009,01,28,05,11,-1.10
2009,01,28,05,12,-1.10
2009,01,28,05,13,-1.10
2009,01,28,05,14,-1.10
2009,01,28,05,15,-1.10
2009,01,28,05,16,-1.10
2009,01,28,05,17,-1.10
2009,01,28,05,18,-1.10
2009,01,28,05,19,-1.20
2009,01,28,05,20,-1.20
2009,01,28,05,21,-1.20
2009,01,28,05,22,-1.20
2009,01,28,05,23,-1.20
2009,01,28,05,24,-1.20
2009,01,28,05,25,-1.30
2009,01,28,05,26,-1.30
2009,01,28,05,27,-1.30
2009,01,28,05,28,-1.30
2009,01,28,05,29,-1.30
2009,01,28,05,30,-1.30
2009,01,28,05,31,-1.30
2009,01,28,05,32,-1.30
2009,01,28,05,33,-1.40
2009,01,28,05,34,-1.40
2009,01,28,05,35,-1.40
2009,01,28,05,36,-1.30
2009,01,28,05,37,-1.30
2009,01,28,05,38,-1.30
2009,01,28,05,39,-1.30
2009,01,28,05,40,-1.30
2009,01,28,05,41,-1.30
2009,01,28,05,42,-1.30
2009,01,28,05,43,-1.30
2009,01,28,05,44,-1.30
2009,01,28,05,45,-1.30
2009,01,28,05,46,-1.30
2009,01,28,05,47,-1.30
2009,01,28,05,48,-1.40
2009,01,28,05,49,-1.40
2009,01,28,05,50,-1.40
2009,01,28,05,51,-1.40
2009,01,28,05,52,-1.40
2009,01,28,05,53,-1.40
2009,01,28,05,54,-1.40
2009,01,28,05,55,-1.40
2009,01,28,05,56,-1.40
2009,01,28,05,57,-1.40
2009,01,28,05,58,-1.40
2009,01,28,05,59,-1.40
2009,01,28,06,00,-1.40
2009,01,28,06,01,-1.40
2009,01,28,06,02,-1.40
2009,01,28,06,03,-1.40
2009,01,28,06,04,-1.30
2009,01,28,06,05,-1.30
2009,01,28,06,06,-1.30
2009,01,28,06,07,-1.30
2009,01,28,06,08,-1.30
2009,01,28,06,09,-1.30
2009,01,28,06,10,-1.30
2009,01,28,06,11,-1.30
2009,01,28,06,12,-1.30
2009,01,28,06,13,-1.30
2009,01,28,06,14,-1.30
2009,01,28,06,15,-1.30
2009,01,28,06,16,-1.40
2009,01,28,06,17,-1.40
2009,01,28,06,18,-1.40
2009,01,28,06,19,-1.40
2009,01,28,06,20,-1.40
2009,01,28,06,21,-1.40
2009,01,28,06,22,-1.40
2009,01,28,06,23,-1.40
2009,01,28,06,24,-1.40
2009,01,28,06,25,-1.40
2009,01,28,06,26,-1.40
2009,01,28,06,27,-1.40
2009,01,28,06,28,-1.40
2009,01,28,06,29,-1.40
2009,01,28,06,30,-1.40
2009,01,28,06,31,-1.40
2009,01,28,06,32,-1.40
2009,01,28,06,33,-1.40
2009,01,28,06,34,-1.40
2009,01,28,06,35,-1.40
2009,01,28,06,36,-1.40
2009,01,28,06,37,-1.40
2009,01,28,06,38,-1.40
2009,01,28,06,39,-1.40
2009,01,28,06,40,-1.40
2009,01,28,06,41,-1.40
2009,01,28,06,42,-1.40
2009,01,28,06,43,-1.40
2009,01,28,06,44,-1.30
2009,01,28,06,45,-1.30
2009,01,28,06,46,-1.30
2009,01,28,06,47,-1.30
2009,01,28,06,48,-1.30
2009,01,28,06,49,-1.30
2009,01,28,06,50,-1.30
2009,01,28,06,51,-1.30
2009,01,28,06,52,-1.40
2009,01,28,06,53,-1.40
2009,01,28,06,54,-1.40
2009,01,28,06,55,-1.40
2009,01,28,06,56,-1.40
2009,01,28,06,57,-1.40
2009,01,28,06,58,-1.40
2009,01,28,06,59,-1.40
2009,01,28,07,00,-1.40
2009,01,28,07,01,-1.40
2009,01,28,07,02,-1.50
2009,01,28,07,03,-1.50
2009,01,28,07,04,-1.50
2009,01,28,07,05,-1.50
2009,01,28,07,06,-1.50
2009,01,28,07,07,-1.50
2009,01,28,07,08,-1.50
2009,01,28,07,09,-1.50
2009,01,28,07,10,-1.50
2009,01,28,07,11,-1.50
2009,01,28,07,12,-1.50
2009,01,28,07,13,-1.50
2009,01,28,07,14,-1.50
2009,01,28,07,15,-1.50
2009,01,28,07,16,-1.50
2009,01,28,07,17,-1.50
2009,01,28,07,18,-1.50
2009,01,28,07,19,-1.50
2009,01,28,07,20,-1.40
2009,01,28,07,21,-1.40
2009,01,28,07,22,-1.40
2009,01,28,07,23,-1.40
2009,01,28,07,24,-1.40
2009,01,28,07,25,-1.40
2009,01,28,07,26,-1.40
2009,01,28,07,27,-1.40
2009,01,28,07,28,-1.30
2009,01,28,07,29,-1.30
2009,01,28,07,30,-1.30
2009,01,28,07,31,-1.30
2009,01,28,07,32,-1.30
2009,01,28,07,33,-1.30
2009,01,28,07,34,-1.30
2009,01,28,07,35,-1.30
2009,01,28,07,36,-1.30
2009,01,28,07,37,-1.30
2009,01,28,07,38,-1.30
2009,01,28,07,39,-1.40
2009,01,28,07,40,-1.40
2009,01,28,07,41,-1.40
2009,01,28,07,42,-1.40
2009,01,28,07,43,-1.40
2009,01,28,07,44,-1.40
2009,01,28,07,45,-1.40
2009,01,28,07,46,-1.40
2009,01,28,07,47,-1.40
2009,01,28,07,48,-1.40
2009,01,28,07,49,-1.40
2009,01,28,07,50,-1.40
2009,01,28,07,51,-1.40
2009,01,28,07,52,-1.40
2009,01,28,07,53,-1.40
2009,01,28,07,54,-1.40
2009,01,28,07,55,-1.40
2009,01,28,07,56,-1.40
2009,01,28,07,57,-1.40
2009,01,28,07,58,-1.40
2009,01,28,07,59,-1.40
2009,01,28,08,00,-1.40
2009,01,28,08,01,-1.40
2009,01,28,08,02,-1.40
2009,01,28,08,03,-1.40
2009,01,28,08,04,-1.40
2009,01,28,08,05,-1.40
2009,01,28,08,06,-1.40
2009,01,28,08,07,-1.40
2009,01,28,08,08,-1.40
2009,01,28,08,09,-1.40
2009,01,28,08,10,-1.40
2009,01,28,08,11,-1.40
2009,01,28,08,12,-1.40
2009,01,28,08,13,-1.40
2009,01,28,08,14,-1.40
2009,01,28,08,15,-1.40
2009,01,28,08,16,-1.40
2009,01,28,08,17,-1.40
2009,01,28,08,18,-1.40
2009,01,28,08,19,-1.40
2009,01,28,08,20,-1.40
2009,01,28,08,21,-1.40
2009,01,28,08,22,-1.40
2009,01,28,08,23,-1.40
2009,01,28,08,24,-1.40
2009,01,28,08,25,-1.40
2009,01,28,08,26,-1.40
2009,01,28,08,27,-1.40
2009,01,28,08,28,-1.40
2009,01,28,08,29,-1.40
2009,01,28,08,30,-1.40
2009,01,28,08,31,-1.30
2009,01,28,08,32,-1.30
2009,01,28,08,33,-1.30
2009,01,28,08,34,-1.20
2009,01,28,08,35,-1.20
2009,01,28,08,36,-1.20
2009,01,28,08,37,-1.10
2009,01,28,08,38,-1.10
2009,01,28,08,39,-1.10
2009,01,28,08,40,-1.10
2009,01,28,08,41,-1.10
2009,01,28,08,42,-1.10
2009,01,28,08,43,-0.90
2009,01,28,08,44,-0.90
2009,01,28,08,45,-0.90
2009,01,28,08,46,-0.90
2009,01,28,08,47,-0.90
2009,01,28,08,48,-0.90
2009,01,28,08,49,-0.90
2009,01,28,08,50,-0.90
2009,01,28,08,51,-0.90
2009,01,28,08,52,-0.90
2009,01,28,08,53,-0.90
2009,01,28,08,54,-0.90
2009,01,28,08,55,-0.90
2009,01,28,08,56,-0.90
2009,01,28,08,57,-0.90
2009,01,28,08,58,-0.90
2009,01,28,08,59,-0.90
2009,01,28,09,00,-0.90
2009,01,28,09,01,-0.90
2009,01,28,09,02,-0.90
2009,01,28,09,03,-0.90
2009,01,28,09,04,-0.90
2009,01,28,09,05,-0.90
2009,01,28,09,06,-0.90
2009,01,28,09,07,-0.90
2009,01,28,09,08,-0.90
2009,01,28,09,09,-0.90
2009,01,28,09,10,-0.90
2009,01,28,09,11,-0.90
2009,01,28,09,12,-0.90
2009,01,28,09,13,-0.90
2009,01,28,09,14,-0.90
2009,01,28,09,15,-0.90
2009,01,28,09,16,-0.80
2009,01,28,09,17,-0.80
2009,01,28,09,18,-0.80
2009,01,28,09,19,-0.80
2009,01,28,09,20,-0.80
2009,01,28,09,21,-0.80
2009,01,28,09,22,-0.80
2009,01,28,09,23,-0.70
2009,01,28,09,24,-0.70
2009,01,28,09,25,-0.70
2009,01,28,09,26,-0.70
2009,01,28,09,27,-0.60
2009,01,28,09,28,-0.60
2009,01,28,09,29,-0.60
2009,01,28,09,30,-0.60
2009,01,28,09,31,-0.60
2009,01,28,09,32,-0.60
2009,01,28,09,33,-0.60
2009,01,28,09,34,-0.60
2009,01,28,09,35,-0.60
2009,01,28,09,36,-0.50
2009,01,28,09,37,-0.40
2009,01,28,09,38,-0.40
2009,01,28,09,39,-0.30
2009,01,28,09,40,-0.30
2009,01,28,09,41,-0.20
2009,01,28,09,42,-0.20
2009,01,28,09,43,-0.10
2009,01,28,09,44,-0.10
2009,01,28,09,45,-0.10
2009,01,28,09,46,-0.10
2009,01,28,09,47,-0.10
2009,01,28,09,48,0.00
2009,01,28,09,49,0.10
2009,01,28,09,50,0.10
2009,01,28,09,51,0.10
2009,01,28,09,52,0.10
2009,01,28,09,53,0.20
2009,01,28,09,54,0.20
2009,01,28,09,55,0.30
2009,01,28,09,56,0.40
2009,01,28,09,57,0.50
2009,01,28,09,58,0.50
2009,01,28,09,59,0.60
2009,01,28,10,00,0.60
2009,01,28,10,01,0.60
2009,01,28,10,02,0.70
2009,01,28,10,03,0.70
2009,01,28,10,04,0.80
2009,01,28,10,05,0.90
2009,01,28,10,06,1.00
2009,01,28,10,07,1.00
2009,01,28,10,08,1.10
2009,01,28,10,09,1.20
2009,01,28,10,10,1.30
2009,01,28,10,11,1.40
2009,01,28,10,12,1.50
2009,01,28,10,13,1.60
2009,01,28,10,14,1.70
2009,01,28,10,15,1.80
2009,01,28,10,16,1.90
2009,01,28,10,17,2.00
2009,01,28,10,18,2.00
2009,01,28,10,19,2.10
2009,01,28,10,20,2.20
2009,01,28,10,21,2.30
2009,01,28,10,22,2.30
2009,01,28,10,23,2.40
2009,01,28,10,24,2.50
2009,01,28,10,25,2.60
2009,01,28,10,26,2.60
2009,01,28,10,27,2.70
2009,01,28,10,28,2.70
2009,01,28,10,29,2.80
2009,01,28,10,30,2.80
2009,01,28,10,31,2.90
2009,01,28,10,32,2.90
2009,01,28,10,33,3.00
2009,01,28,10,34,3.20
2009,01,28,10,35,3.30
2009,01,28,10,36,3.40
2009,01,28,10,37,3.50
2009,01,28,10,38,3.70
2009,01,28,10,39,3.80
2009,01,28,10,40,3.90
2009,01,28,10,41,4.00
2009,01,28,10,42,4.00
2009,01,28,10,43,4.00
2009,01,28,10,44,4.00
2009,01,28,10,45,4.10
2009,01,28,10,46,4.10
2009,01,28,10,47,4.20
2009,01,28,10,48,4.20
2009,01,28,10,49,4.20
2009,01,28,10,50,4.20
2009,01,28,10,51,4.20
2009,01,28,10,52,4.30
2009,01,28,10,53,4.40
2009,01,28,10,54,4.50
2009,01,28,10,55,4.50
2009,01,28,10,56,4.50
2009,01,28,10,57,4.60
2009,01,28,10,58,4.60
2009,01,28,10,59,4.60
2009,01,28,11,00,4.60
2009,01,28,11,01,4.60
2009,01,28,11,02,4.60
2009,01,28,11,03,4.60
2009,01,28,11,04,4.60
2009,01,28,11,05,4.70
2009,01,28,11,06,4.70
2009,01,28,11,07,4.80
2009,01,28,11,08,4.90
2009,01,28,11,09,5.00
2009,01,28,11,10,5.10
2009,01,28,11,11,5.10
2009,01,28,11,12,5.10
2009,01,28,11,13,5.20
2009,01,28,11,14,5.20
2009,01,28,11,15,5.20
2009,01,28,11,16,5.20
2009,01,28,11,17,5.20
2009,01,28,11,18,5.20
2009,01,28,11,19,5.20
2009,01,28,11,20,5.20
2009,01,28,11,21,5.20
2009,01,28,11,22,5.30
2009,01,28,11,23,5.30
2009,01,28,11,24,5.30
2009,01,28,11,25,5.30
2009,01,28,11,26,5.30
2009,01,28,11,27,5.30
2009,01,28,11,28,5.30
2009,01,28,11,29,5.30
2009,01,28,11,30,5.30
2009,01,28,11,31,5.30
2009,01,28,11,32,5.30
2009,01,28,11,33,5.30
2009,01,28,11,34,5.40
2009,01,28,11,35,5.40
2009,01,28,11,36,5.40
2009,01,28,11,37,5.50
2009,01,28,11,38,5.50
2009,01,28,11,39,5.60
2009,01,28,11,40,5.70
2009,01,28,11,41,5.70
2009,01,28,11,42,5.80
2009,01,28,11,43,5.80
2009,01,28,11,44,5.90
2009,01,28,11,45,6.00
2009,01,28,11,46,6.00
2009,01,28,11,47,6.00
2009,01,28,11,48,6.10
2009,01,28,11,49,6.10
2009,01,28,11,50,6.20
2009,01,28,11,51,6.20
2009,01,28,11,52,6.20
2009,01,28,11,53,6.20
2009,01,28,11,54,6.20
2009,01,28,11,55,6.20
2009,01,28,11,56,6.20
2009,01,28,11,57,6.20
2009,01,28,11,58,6.20
2009,01,28,11,59,6.20
2009,01,28,12,00,6.20
2009,01,28,12,01,6.20
2009,01,28,12,02,6.10
2009,01,28,12,03,6.10
2009,01,28,12,04,6.10
2009,01,28,12,05,6.00
2009,01,28,12,06,6.00
2009,01,28,12,07,6.00
2009,01,28,12,08,6.00
2009,01,28,12,09,6.00
2009,01,28,12,10,6.10
2009,01,28,12,11,6.10
2009,01,28,12,12,6.10
2009,01,28,12,13,6.10
2009,01,28,12,14,6.10
2009,01,28,12,15,6.10
2009,01,28,12,16,6.10
2009,01,28,12,17,6.10
2009,01,28,12,18,6.20
2009,01,28,12,19,6.20
2009,01,28,12,20,6.20
2009,01,28,12,21,6.20
2009,01,28,12,22,6.20
2009,01,28,12,23,6.30
2009,01,28,12,24,6.30
2009,01,28,12,25,6.30
2009,01,28,12,26,6.30
2009,01,28,12,27,6.30
2009,01,28,12,28,6.30
2009,01,28,12,29,6.30
2009,01,28,12,30,6.20
2009,01,28,12,31,6.20
2009,01,28,12,32,6.20
2009,01,28,12,33,6.20
2009,01,28,12,34,6.20
2009,01,28,12,35,6.20
2009,01,28,12,36,6.20
2009,01,28,12,37,6.20
2009,01,28,12,38,6.20
2009,01,28,12,39,6.20
2009,01,28,12,40,6.20
2009,01,28,12,41,6.20
2009,01,28,12,42,6.20
2009,01,28,12,43,6.20
2009,01,28,12,44,6.20
2009,01,28,12,45,6.20
2009,01,28,12,46,6.20
2009,01,28,12,47,6.20
2009,01,28,12,48,6.10
2009,01,28,12,49,6.10
2009,01,28,12,50,6.10
2009,01,28,12,51,6.10
2009,01,28,12,52,6.00
2009,01,28,12,53,6.00
2009,01,28,12,54,6.00
2009,01,28,12,55,6.00
2009,01,28,12,56,6.00
2009,01,28,12,57,6.00
2009,01,28,12,58,5.90
2009,01,28,12,59,5.90
2009,01,28,13,00,5.90
2009,01,28,13,01,5.90
2009,01,28,13,02,5.90
2009,01,28,13,03,5.90
2009,01,28,13,04,6.00
2009,01,28,13,05,6.00
2009,01,28,13,06,6.10
2009,01,28,13,07,6.10
2009,01,28,13,08,6.20
2009,01,28,13,09,6.20
2009,01,28,13,10,6.20
2009,01,28,13,11,6.20
2009,01,28,13,12,6.20
2009,01,28,13,13,6.20
2009,01,28,13,14,6.20
2009,01,28,13,15,6.20
2009,01,28,13,16,6.20
2009,01,28,13,17,6.20
2009,01,28,13,18,6.20
2009,01,28,13,19,6.20
2009,01,28,13,20,6.20
2009,01,28,13,21,6.30
2009,01,28,13,22,6.30
2009,01,28,13,23,6.30
2009,01,28,13,24,6.30
2009,01,28,13,25,6.30
2009,01,28,13,26,6.30
2009,01,28,13,27,6.30
2009,01,28,13,28,6.20
2009,01,28,13,29,6.20
2009,01,28,13,30,6.20
2009,01,28,13,31,6.20
2009,01,28,13,32,6.20
2009,01,28,13,33,6.20
2009,01,28,13,34,6.20
2009,01,28,13,35,6.20
2009,01,28,13,36,6.20
2009,01,28,13,37,6.20
2009,01,28,13,38,6.20
2009,01,28,13,39,6.20
2009,01,28,13,40,6.20
2009,01,28,13,41,6.20
2009,01,28,13,42,6.20
2009,01,28,13,43,6.10
2009,01,28,13,44,6.10
2009,01,28,13,45,6.00
2009,01,28,13,46,6.00
2009,01,28,13,47,6.00
2009,01,28,13,48,6.00
2009,01,28,13,49,6.00
2009,01,28,13,50,6.10
2009,01,28,13,51,6.10
2009,01,28,13,52,6.10
2009,01,28,13,53,6.10
2009,01,28,13,54,6.20
2009,01,28,13,55,6.20
2009,01,28,13,56,6.20
2009,01,28,13,57,6.20
2009,01,28,13,58,6.30
2009,01,28,13,59,6.30
2009,01,28,14,00,6.40
2009,01,28,14,01,6.50
2009,01,28,14,02,6.60
2009,01,28,14,03,6.60
2009,01,28,14,04,6.60
2009,01,28,14,05,6.60
2009,01,28,14,06,6.60
2009,01,28,14,07,6.60
2009,01,28,14,08,6.60
2009,01,28,14,09,6.60
2009,01,28,14,10,6.70
2009,01,28,14,11,6.70
2009,01,28,14,12,6.70
2009,01,28,14,13,6.60
2009,01,28,14,14,6.60
2009,01,28,14,15,6.60
2009,01,28,14,16,6.60
2009,01,28,14,17,6.60
2009,01,28,14,18,6.50
2009,01,28,14,19,6.40
2009,01,28,14,20,6.40
2009,01,28,14,21,6.40
2009,01,28,14,22,6.40
2009,01,28,14,23,6.40
2009,01,28,14,24,6.30
2009,01,28,14,25,6.30
2009,01,28,14,26,6.20
2009,01,28,14,27,6.20
2009,01,28,14,28,6.20
2009,01,28,14,29,6.20
2009,01,28,14,30,6.20
2009,01,28,14,31,6.20
2009,01,28,14,32,6.20
2009,01,28,14,33,6.20
2009,01,28,14,34,6.20
2009,01,28,14,35,6.20
2009,01,28,14,36,6.20
2009,01,28,14,37,6.20
2009,01,28,14,38,6.20
2009,01,28,14,39,6.20
2009,01,28,14,40,6.30
2009,01,28,14,41,6.30
2009,01,28,14,42,6.30
2009,01,28,14,43,6.30
2009,01,28,14,44,6.30
2009,01,28,14,45,6.40
2009,01,28,14,46,6.40
2009,01,28,14,47,6.40
2009,01,28,14,48,6.40
2009,01,28,14,49,6.40
2009,01,28,14,50,6.40
2009,01,28,14,51,6.40
2009,01,28,14,52,6.30
2009,01,28,14,53,6.30
2009,01,28,14,54,6.30
2009,01,28,14,55,6.40
2009,01,28,14,56,6.40
2009,01,28,14,57,6.40
2009,01,28,14,58,6.40
2009,01,28,14,59,6.40
2009,01,28,15,00,6.50
2009,01,28,15,01,6.60
2009,01,28,15,02,6.60
2009,01,28,15,03,6.60
2009,01,28,15,04,6.60
2009,01,28,15,05,6.60
2009,01,28,15,06,6.60
2009,01,28,15,07,6.60
2009,01,28,15,08,6.60
2009,01,28,15,09,6.60
2009,01,28,15,10,6.60
2009,01,28,15,11,6.60
2009,01,28,15,12,6.60
2009,01,28,15,13,6.60
2009,01,28,15,14,6.60
2009,01,28,15,15,6.60
2009,01,28,15,16,6.60
2009,01,28,15,17,6.60
2009,01,28,15,18,6.60
2009,01,28,15,19,6.60
2009,01,28,15,20,6.40
2009,01,28,15,21,6.40
2009,01,28,15,22,6.40
2009,01,28,15,23,6.40
2009,01,28,15,24,6.40
2009,01,28,15,25,6.40
2009,01,28,15,26,6.40
2009,01,28,15,27,6.40
2009,01,28,15,28,6.40
2009,01,28,15,29,6.40
2009,01,28,15,30,6.40
2009,01,28,15,31,6.40
2009,01,28,15,32,6.40
2009,01,28,15,33,6.40
2009,01,28,15,34,6.30
2009,01,28,15,35,6.30
2009,01,28,15,36,6.20
2009,01,28,15,37,6.10
2009,01,28,15,38,6.10
2009,01,28,15,39,6.00
2009,01,28,15,40,6.00
2009,01,28,15,41,5.90
2009,01,28,15,42,5.90
2009,01,28,15,43,5.80
2009,01,28,15,44,5.80
2009,01,28,15,45,5.80
2009,01,28,15,46,5.80
2009,01,28,15,47,5.80
2009,01,28,15,48,5.70
2009,01,28,15,49,5.70
2009,01,28,15,50,5.70
2009,01,28,15,51,5.70
2009,01,28,15,52,5.70
2009,01,28,15,53,5.70
2009,01,28,15,54,5.70
2009,01,28,15,55,5.70
2009,01,28,15,56,5.70
2009,01,28,15,57,5.70
2009,01,28,15,58,5.70
2009,01,28,15,59,5.60
2009,01,28,16,00,5.60
2009,01,28,16,01,5.60
2009,01,28,16,02,5.60
2009,01,28,16,03,5.60
2009,01,28,16,04,5.60
2009,01,28,16,05,5.70
2009,01,28,16,06,5.70
2009,01,28,16,07,5.70
2009,01,28,16,08,5.70
2009,01,28,16,09,5.70
2009,01,28,16,10,5.70
2009,01,28,16,11,5.60
2009,01,28,16,12,5.60
2009,01,28,16,13,5.60
2009,01,28,16,14,5.50
2009,01,28,16,15,5.50
2009,01,28,16,16,5.50
2009,01,28,16,17,5.50
2009,01,28,16,18,5.50
2009,01,28,16,19,5.50
2009,01,28,16,20,5.40
2009,01,28,16,21,5.40
2009,01,28,16,22,5.40
2009,01,28,16,23,5.30
2009,01,28,16,24,5.30
2009,01,28,16,25,5.30
2009,01,28,16,26,5.30
2009,01,28,16,27,5.30
2009,01,28,16,28,5.30
2009,01,28,16,29,5.30
2009,01,28,16,30,5.20
2009,01,28,16,31,5.20
2009,01,28,16,32,5.20
2009,01,28,16,33,5.20
2009,01,28,16,34,5.20
2009,01,28,16,35,5.10
2009,01,28,16,36,5.10
2009,01,28,16,37,5.10
2009,01,28,16,38,5.10
2009,01,28,16,39,5.10
2009,01,28,16,40,5.00
2009,01,28,16,41,4.90
2009,01,28,16,42,4.90
2009,01,28,16,43,4.90
2009,01,28,16,44,4.90
2009,01,28,16,45,4.80
2009,01,28,16,46,4.80
2009,01,28,16,47,4.70
2009,01,28,16,48,4.70
2009,01,28,16,49,4.60
2009,01,28,16,50,4.60
2009,01,28,16,51,4.60
2009,01,28,16,52,4.60
2009,01,28,16,53,4.50
2009,01,28,16,54,4.50
2009,01,28,16,55,4.40
2009,01,28,16,56,4.40
2009,01,28,16,57,4.30
2009,01,28,16,58,4.20
2009,01,28,16,59,4.20
2009,01,28,17,00,4.10
2009,01,28,17,01,4.10
2009,01,28,17,02,4.00
2009,01,28,17,03,4.00
2009,01,28,17,04,3.90
2009,01,28,17,05,3.80
2009,01,28,17,06,3.80
2009,01,28,17,07,3.80
2009,01,28,17,08,3.70
2009,01,28,17,09,3.70
2009,01,28,17,10,3.60
2009,01,28,17,11,3.60
2009,01,28,17,12,3.50
2009,01,28,17,13,3.50
2009,01,28,17,14,3.40
2009,01,28,17,15,3.40
2009,01,28,17,16,3.30
2009,01,28,17,17,3.30
2009,01,28,17,18,3.30
2009,01,28,17,19,3.20
2009,01,28,17,20,3.20
2009,01,28,17,21,3.10
2009,01,28,17,22,3.10
2009,01,28,17,23,3.10
2009,01,28,17,24,3.10
2009,01,28,17,25,3.00
2009,01,28,17,26,2.90
2009,01,28,17,27,2.90
2009,01,28,17,28,2.80
2009,01,28,17,29,2.80
2009,01,28,17,30,2.80
2009,01,28,17,31,2.70
2009,01,28,17,32,2.70
2009,01,28,17,33,2.70
2009,01,28,17,34,2.70
2009,01,28,17,35,2.70
2009,01,28,17,36,2.60
2009,01,28,17,37,2.60
2009,01,28,17,38,2.60
2009,01,28,17,39,2.60
2009,01,28,17,40,2.50
2009,01,28,17,41,2.50
2009,01,28,17,42,2.50
2009,01,28,17,43,2.50
2009,01,28,17,44,2.40
2009,01,28,17,45,2.40
2009,01,28,17,46,2.40
2009,01,28,17,47,2.40
2009,01,28,17,48,2.30
2009,01,28,17,49,2.30
2009,01,28,17,50,2.30
2009,01,28,17,51,2.30
2009,01,28,17,52,2.30
2009,01,28,17,53,2.30
2009,01,28,17,54,2.30
2009,01,28,17,55,2.30
2009,01,28,17,56,2.30
2009,01,28,17,57,2.30
2009,01,28,17,58,2.30
2009,01,28,17,59,2.30
2009,01,28,18,00,2.30
2009,01,28,18,01,2.30
2009,01,28,18,02,2.30
2009,01,28,18,03,2.40
2009,01,28,18,04,2.40
2009,01,28,18,05,2.40
2009,01,28,18,06,2.40
2009,01,28,18,07,2.40
2009,01,28,18,08,2.40
2009,01,28,18,09,2.40
2009,01,28,18,10,2.40
2009,01,28,18,11,2.40
2009,01,28,18,12,2.40
2009,01,28,18,13,2.40
2009,01,28,18,14,2.40
2009,01,28,18,15,2.40
2009,01,28,18,16,2.50
2009,01,28,18,17,2.50
2009,01,28,18,18,2.50
2009,01,28,18,19,2.50
2009,01,28,18,20,2.50
2009,01,28,18,21,2.50
2009,01,28,18,22,2.50
2009,01,28,18,23,2.50
2009,01,28,18,24,2.50
2009,01,28,18,25,2.50
2009,01,28,18,26,2.50
2009,01,28,18,27,2.50
2009,01,28,18,28,2.50
2009,01,28,18,29,2.50
2009,01,28,18,30,2.50
2009,01,28,18,31,2.50
2009,01,28,18,32,2.50
2009,01,28,18,33,2.50
2009,01,28,18,34,2.60